Location: Invercargill
(46.4000°S, 168.3500°E)
Time: 09:44:08
(UTC+13:00)

MetOp-B - Pass Details

Date: 24 January 2019
Orbit: 820 x 820 km, 98.7° (Epoch: 21 February)

Event Time Altitude Azimuth Distance (km) Brightness Sun altitude
Rises 23:14:50 0° 162° (SSE) 3,395 7.8 -14.7°
Reaches altitude 10° 23:17:16 10° 157° (SSE) 2,455 7.0 -14.9°
Maximum altitude 23:22:35 52° 80° (E) 1,029 4.4 -15.5°
Enters shadow 23:25:58 22° 12° (NNE) 1,756 5.3 -15.9°
